Regional Weather Roundup
Issued by NWS Wakefield, VA

Home | Current Version | Previous Version | Graphics & Text | Print | Product List | Glossary On
Versions: 1 2 3 4 5 6 7 8 9 10 11 12 13 14 15 16 17 18 19 20 21 22 23 24 25
000
ASUS41 KAKQ 301415
RWRAKQ

REGIONAL WEATHER ROUNDUP
NATIONAL WEATHER SERVICE WAKEFIELD VA
1000 AM EDT THU JUL 30 2015

Note: "fair" indicates few or no clouds below 12,000 feet with no
significant weather and/or obstructions to visibility. * = Denotes
station may not report precipitation (e.g., rain,snow,etc.),
thunder or fog.

VAZ042-051-052>054-056-301500-
NORTHERN VIRGINIA

CITY           SKY/WX    TMP DP  RH WIND       PRES   REMARKS
WASH NATIONAL  PTSUNNY   84  75  74 S10       29.91F
DULLES         MOSUNNY   81  74  79 SW8       29.92S
FORT BELVOIR   MOSUNNY   82  74  76 VRB7      29.91F
QUANTICO       PTSUNNY   82  73  72 S7        29.94R
FREDERICKSBRG* MOSUNNY   85  74  71 S7        29.92S
STAFFORD*      MOSUNNY   83  72  69 SW9       29.97S
WARRENTON      MOSUNNY   84  77  80 SW6       29.92S
CULPEPER*      MOSUNNY   81  75  81 CALM      29.93S
MANASSAS*      NOT AVBL
LEESBURG*      MOSUNNY   84  79  84 CALM      29.93S HX  96
WINCHESTER     PTSUNNY   86  73  66 SW6       29.93S
FRONT ROYAL*   FAIR      81  73  78 SW8       29.92F
LURAY*         FAIR      84  75  74 SW8       29.95F
$$

VAZ048-049-060>072-079>083-301500-
CENTRAL AND SOUTH CENTRAL VIRGINIA

CITY           SKY/WX    TMP DP  RH WIND       PRES   REMARKS
RICHMOND       PTSUNNY   84  73  69 S10       29.95S
CHESTERFIELD*  FAIR      82  66  57 S8        29.97S
PETERSBURG*    MOSUNNY   83  77  81 S6        29.97S
HANOVER        SUNNY     83  73  72 S9        29.96S
TAPPAHANNOCK*  SUNNY     83  70  64 CALM      29.96R
QUINTON*       FAIR      82  72  71 S6        29.95S
CHARLOTTSVILLE MOSUNNY   82  74  76 SW6       29.94S
GORDONSVILLE*  FAIR      82  75  78 SW9       29.93S
ORANGE*        MOSUNNY   84  75  74 S5        29.94F
LOUISA*        MOSUNNY   82  73  74 SW7       29.93F
BUMPASS*       FAIR      82  74  77 SW7       29.94F
FARMVILLE*     MOSUNNY   83  77  83 S6        29.95S
CREWE*         FAIR     N/A N/A N/A SW7       29.96S
FORT PICKETT*  FAIR      83  74  74 S10       29.97S
CHASE CITY*    FAIR      84  76  78 SW5       29.97F
CLARKSVILLE*   FAIR      82  73  74 SW5       29.97S
SOUTH HILL*    SUNNY     81  73  76 S6        30.03S
LAWRENCEVILLE* CLOUDY    81  73  78 S5        29.97F
EMPORIA*       SUNNY     81  72  74 CALM      29.98F
$$

VAZ088>098-301500-
SOUTHEAST VIRGINIA

CITY           SKY/WX    TMP DP  RH WIND       PRES   REMARKS
NORFOLK        SUNNY     85  72  65 S6        29.96S
VIRGINIA BEACH MOSUNNY   86  74  67 S7        29.95F
NORFOLK NAVAL  MOSUNNY   84  73  69 W7        29.97S
WEST POINT*    PTSUNNY   83  71  67 S6        29.97S
SALUDA*        PTSUNNY   82  74  78 SW3       29.95F
NEWPORT NEWS   SUNNY     84  73  69 SW7       29.97R
LANGLEY AFB    SUNNY     84  71  65 VRB6      29.96S
FORT EUSTIS    SUNNY     82  80  93 S7        29.95S
WILLIAMSBURG*  SUNNY     84  75  74 SW6       29.97F
HR EXEC AP*    FAIR      82  73  74 SW5       29.98F
FRANKLIN*      MOSUNNY   82  74  76 CALM      29.97F
WAKEFIELD      SUNNY     83  73  72 VRB5      29.97S HAZE
$$

VAZ020-022-025-037-045-301500-
WEST CENTRAL AND SOUTHWEST VIRGINIA

CITY           SKY/WX    TMP DP  RH WIND       PRES   REMARKS
STAUNTON*      MOSUNNY   83  74  74 CALM      29.99F
WAYNESBORO*    FAIR      79  72  79 SW7       30.00S
HOT SPRINGS VA CLOUDY    70  70 100 W8        30.12S FOG
LYNCHBURG      MOSUNNY   80  73  79 S9        29.99
DANVILLE       MOSUNNY   82  74  76 SW5       29.98S
SOUTH BOSTON*  FAIR      82  74  74 S5        29.97S
MARTINSVILLE   MOSUNNY   84  72  67 CALM      30.02S
ROANOKE        PTSUNNY   78  71  79 W7        30.03R
BLACKSBURG     PTSUNNY   76  72  87 W3        30.10R
DUBLIN*          N/A     79  73  82 W6        30.09R
MARION*        CLOUDY    74  71  92 SW8       30.13S
HILLSVILLE*    SUNNY     75  70  85 NW8       30.10S
RICHLANDS*     CLOUDY    71  71 100 NW3       30.13R FOG
WISE*          CLOUDY    73  73 100 NW6       30.15R
ABINGDON*      PTSUNNY   79  71  76 W3        30.10R
$$

MDZ021>025-VAZ099-100-301500-
SOUTHERN MARYLAND AND THE DELMARVA PENINSULA

CITY           SKY/WX    TMP DP  RH WIND       PRES   REMARKS
PATUXENT RIVER MOSUNNY   81  72  74 SW10      29.93F
BAY BRIDGE APT   N/A     81  70  69 S12       29.92S
LEONARDTOWN    SUNNY     82  70  65 S6        29.95S
DOVER          SUNNY     83  77  81 S14       29.91F
GEORGETOWN     MOSUNNY   84  74  71 SW13      29.95F
EASTON         MOSUNNY   84  73  70 SW10      29.96F
CAMBRIDGE      SUNNY     82  70  65 S5        29.94S
SALISBURY      PTSUNNY   82  73  74 S10       29.95S
OCEAN CITY     SUNNY     82  73  74 S8        29.95F
WALLOPS ISLAND PTSUNNY   83  75  77 S13       29.97S
ACCOMACK*      MOSUNNY   82  77  83 S7        29.96S
$$

NCZ012>017-030>032-301500-
NORTH CENTRAL AND EASTERN NORTH CAROLINA

CITY           SKY/WX    TMP DP  RH WIND       PRES   REMARKS
ROANOKE RAPIDS FAIR      81  73  78 SW3       29.97F
RALEIGH        MOSUNNY   84  70  62 SW6       29.98S
ELIZABETH CITY MOSUNNY   84  77  79 E6        29.96F
AHOSKIE*       SUNNY     81  72  73 CALM      29.97F
EDENTON*         N/A     83  74  74 CALM      29.96F
CURRITUCK*     PTSUNNY   84  74  71 E5        29.97S
KILL DEVIL HLS PTSUNNY   87  77  72 E3        29.95S HX  99
MANTEO         MOSUNNY   84  76  77 S7        29.96S
CAPE HATTERAS  PTSUNNY   82  77  84 SW12      29.96F
TARBORO*         N/A     83  74  73 N3        29.97F
GOLDSBORO      SUNNY     83  74  75 W2        29.95S
WASHINGTON     SUNNY     83  76  79 CALM      29.96F
GREENVILLE     SUNNY     82  75  78 CALM      29.98F
NEW BERN       MOSUNNY   84  77  79 N6        29.96F
WILMINGTON     MOSUNNY   83  76  79 N5        29.96S
$$

VAZ048-301500-
ELSEWHERE

CITY           SKY/WX    TMP DP  RH WIND       PRES   REMARKS
HARRISBURG PA  MOSUNNY   83  73  72 CALM      29.88F
BALTIMORE      PTSUNNY   84  73  69 SW7       29.90F
ANNAPOLIS      MOSUNNY   82  72  71 S9        29.91F
ANDREWS AFB    MOSUNNY   84  73  69 S8        29.91F
PHILADELPHIA   PTSUNNY   85  73  67 S14       29.90F
HENDERSON NC   SUNNY     82  69  64 SW7       29.99S
GREENSBORO     PTSUNNY   84  74  71 VRB5      29.99S
ROCKY MOUNT    SUNNY     84  72  67 W3        29.97F
$$

VAZ100-301500-
MARINE

STATION/POSITION TIME  TEMP    WIND        PRES    WAVE   SWELL
                       AIR SEA DIR/SP/G            HT/PER HT/PER
                 (UTC) (F)     (DEG/KT/KT) (MB)    (FT/S) (FT/S)
BRANDYWINE LGT   1300   75 75  200/ 12/ 13 1014.2
CAPE MAY NJ      1300   77 78  180/  9/ 13 1013.8
LEWES DE         1312   81 73  210/  5/  9 1013.9
15NM E FENWICK I 1350   79 79  180/ 14/ 14 1014.3F   3/10   2/10
OCEAN-CITY-INLET 1312   76 74  200/  8/ 10 1013.7
WACHAPREAGUE VA  1300   81 82  200/  8/ 11 1014.6
GOOSES REEF MD   1400   82 82  210/ 10/ 12 1014.4F
COVE POINT MD    1312   79     230/ 11/ 12 1014.3
SOLOMONS ISLAND  1306      83                N/A
BISHOPS HEAD MD  1312   81 81  210/ 12/ 14 1013.1
POTOMAC MD       1400   82 83  230/ 10/ 12 1013.0F   1/ 2
CAMBRIDGE MD     1300   81 83  200/  7/ 12 1012.9
LEWISETTA VA     1312   81 83  230/ 11/ 13 1013.6
RAPPAHANNOCK LGT 1306          180/ 11/ 12 1015.0R
STINGRAY PT      1400   81 82  220/ 10/ 12 1014.5S   1/ 2
YORK RVR RNG VA  1300   80     200/  6/  7 1014.0
YORKTOWN VA      1312   81 83  230/  6/  9 1014.3
JAMESTOWN VA     1400   81 85  190/  4/  6   N/A
DOMINION TERM VA 1312   79     190/  4/  5 1014.6
KIPTOPEKE VA     1306      81  190/  9/ 10   N/A
CHES BAY BRIDGE  1306   80 77  150/  6/  8 1014.2
CAPE HENRY VA    1306   81     140/  8/ 11   N/A
CHESAPEAKE LGHT  1300   80     150/  9/  9 1015.4R
WILLOUBY STN VA  1312   80     230/ 10/ 11 1015.6
CAPE HENRY BUOY  1328      81                N/A     3/ 6
1ST LANDING BUOY 1400      79              1014.2S   1/ 4
CAPE CHARLES BUO 1326      80                N/A     2/11   2/11
OFFSHORE WE BUOY 1311      81                N/A     3/ 6   3/ 6
64NM E OF VA BCH 1350   81 82  140/  8/  8 1014.2F   3/11   2/11
DUCK PIER NC     1306   81 63  110/  5/  6 1013.8
44100 DUCK FRF   1324      81                N/A     3/ 9
44056 DUCK FRF   1311      71                N/A     2/10
OREGON INLET NC  1300   82 80  100/  7/  8 1014.5
HATTERAS NC      1306   80 83  210/  6/  9 1014.3
DIAMOND SHLS NC  1350   84 85  170/ 17/ 21 1014.3S   4/ 7   2/ 7
CAPE LOOKOUT NC  1400   82     180/ 14/ 15 1013.8R
$$


USA.gov is the U.S. government's official web portal to all federal, state and local government web resources and services.